Voltar ao catálogo

STARLINK-36130

AtivoComunicaçõesVLEO
NORAD 66931·PAYLOAD·🇺🇸 United States

Lançado Dec 7, 2025 de Vandenberg Space Force Base

Loading…

Próximas Passagens (próximas 24 horas)

TLE

AtualizadoSource: CelesTrak SupGP

Época: Sep 14, 2026, 22:58 UTC

1 66931C 25286G   26257.95743056 -.00024813  00000+0 -73287-3 0  2575
2 66931  53.1574 195.5475 0001382  96.0739  53.6558 15.34413444    12

Acompanhe STARLINK-36130 em tempo real com AllMySat

Download on the App Store